Location: Sabalos
(43.2860°N, 0.1414°E)
Time: 21:10:22
(UTC+00:00)

Meteor 2-2 Rocket - Pass Details

Date: 05 July 2020
Orbit: 852 x 929 km, 81.3° (Epoch: 14 August)

Event Time Altitude Azimuth Distance (km) Brightness Sun altitude
Rises 22:25:16 0° 348° (NNW) 3,517 8.9 -20.2°
Reaches altitude 10° 22:27:46 10° 347° (NNW) 2,561 7.9 -20.4°
Maximum altitude 22:33:34 75° 263° (W) 908 4.3 -20.8°
Enters shadow 22:35:51 38° 186° (S) 1,306 4.7 -21.0°
